Regional Weather Roundup
Issued by NWS Upton, NY

Current Version | Previous Version | Graphics & Text | Print | Product List | Glossary Off
Versions: 1 2 3 4 5 6 7 8 9 10 11 12 13 14 15 16 17 18 19 20 21 22 23 24 25 26 27 28 29 30 31 32 33 34 35 36 37 38 39 40 41 42 43 44 45 46 47 48 49 50

000
ASUS41 KOKX 291704
RWROKX

REGIONAL WEATHER ROUNDUP
NATIONAL WEATHER SERVICE NEW YORK NY
100 PM EDT SAT AUG 29 2015

NOTE: "FAIR" INDICATES FEW OR NO CLOUDS BELOW 12,000 FEET WITH NO
SIGNIFICANT WEATHER AND/OR OBSTRUCTIONS TO VISIBILITY.

NYZ071-072-176-178-NJZ106-104-291800-
NEW YORK CITY METRO AREA


CITY           SKY/WX    TMP DP  RH WIND       PRES   REMARKS
CENTRAL PARK   PTSUNNY   83  53  35 CALM      30.21F
LAGUARDIA APRT PTSUNNY   82  53  36 NW13      30.17F
KENNEDY INTL   PTSUNNY   83  56  39 S10       30.19F
NEWARK/LIBERTY PTSUNNY   85  54  34 W10       30.18F
BRNX BOT. GARD   N/A     81  54  39 NW10      30.20F
TETERBORO      MOSUNNY   83  51  33 CALM      30.17F
$$

NYZ177-179-078>081-291800-
LONG ISLAND NEW YORK

CITY           SKY/WX    TMP DP  RH WIND       PRES   REMARKS
FARMINGDALE    MOSUNNY   82  54  37 N7        30.19F
ISLIP          PTSUNNY   81  57  43 VRB5      30.17F
SHIRLEY        PTSUNNY   79  57  46 S10       30.19F
WESTHAMPTON    PTSUNNY   83  55  38 SW12      30.20F
MONTAUK POINT    N/A     79  61  53 NW8       30.21F
$$

NYZ052-065-067-291800-
HUDSON VALLEY

CITY           SKY/WX    TMP DP  RH WIND       PRES   REMARKS
WHITE PLAINS   PTSUNNY   81  54  39 VRB5      30.19F
NEWBURGH       MOSUNNY   79  61  53 W12       30.23S
MONTGOMERY     MOSUNNY   81  61  50 S8        30.18F
POUGHKEEPSIE   MOSUNNY   81  56  42 SW8       30.17F
ALBANY         PTSUNNY   77  57  50 SE5       30.17F
$$

NJZ001-105-106-008-010-013-015-019>022-104-291800-
NEW JERSEY

CITY           SKY/WX    TMP DP  RH WIND       PRES   REMARKS
NEWARK/LIBERTY PTSUNNY   85  54  34 W10       30.18F
TETERBORO      MOSUNNY   83  51  33 CALM      30.17F
CALDWELL       MOSUNNY   81  56  42 W6        30.18F
MORRISTOWN     PTSUNNY   84  59  42 W6        30.18F
SOMERVILLE     MOSUNNY   82  58  43 VRB3      30.16F
SUSSEX         PTSUNNY   79  59  50 S5        30.18F
ANDOVER          N/A     78  61  55 VRB7      30.20F
TRENTON        SUNNY     82  60  47 SW12      30.18F
MILLVILLE      SUNNY     82  59  45 VRB7      30.20F
ATLANTIC CITY  MOSUNNY   86  57  37 W7        30.20F
WRIGHTSTOWN    MOSUNNY   83  61  47 VRB5      30.17F
TOMS RIVER     PTSUNNY   82  55  39 NW5       30.20F
BELMAR         MOSUNNY   82  57  42 W6        30.20F
$$

PAZ047>061-062-071-291800-
EASTERN PENNSYLVANIA

CITY           SKY/WX    TMP DP  RH WIND       PRES   REMARKS
PHILADELPHIA   MOSUNNY   84  58  40 SW13      30.19F
ALLENTOWN      PTSUNNY   81  60  48 S8        30.18F
SCRANTON       MOSUNNY   80  59  48 SW8       30.18F
$$

CTZ002-004>006-009-010-012-RIZ004-006-007-MAZ004-011-015-291800-
SOUTHERN NEW ENGLAND
 IN CT

CITY           SKY/WX    TMP DP  RH WIND       PRES   REMARKS
BRADLEY INTL   PTSUNNY   80  55  42 W9        30.17F
HARTFORD       MOSUNNY   79  55  43 W10       30.17F
DANBURY        MOSUNNY   78  57  48 SW9       30.21F
WTRBRY/OXFORD  NOT AVBL
BRIDGEPORT     SUNNY     79  57  46 SW13      30.18F
MERIDEN        MOSUNNY   82  54  37 SW8       30.17F
NEW HAVEN      MOSUNNY   78  59  51 S10       30.19F
CHESTER        NOT AVBL
GROTON         SUNNY     76  62  62 SW13      30.18F
WILLIMANTIC    MOSUNNY   79  54  41 MISG      30.18F

 IN RI

CITY           SKY/WX    TMP DP  RH WIND       PRES   REMARKS
PROVIDENCE     PTSUNNY   79  54  41 SW10G17   30.18F
BLOCK ISLAND   SUNNY     79  63  57 W9        30.20F
WESTERLY       MOSUNNY   79  56  45 SW12G18   30.19F

 IN MA

CITY           SKY/WX    TMP DP  RH WIND       PRES   REMARKS
BOSTON         MOSUNNY   79  54  41 W10G18    30.15F
WORCESTER      SUNNY     72  51  47 W6        30.20F
WESTFIELD      PTSUNNY   77  53  43 CALM      30.17F
PROVINCETOWN   SUNNY     79  55  44 SW7       30.18S
NANTUCKET      SUNNY     78  60  53 SW13      30.20S
$$

ANZ330-335-338-340-345-350-353-355-291800-
COASTAL MARINE OBSERVATIONS


STATION/POSITION TIME  SKY/WX   TEMP    WIND        PRES    VSBY  WAVE
                                AIR SEA DIR/SP/G                  HT/PER
                 (UTC)          (F)     (DEG/KT/KT) (MB)    (MI)  (FT/S)
NY HARB ENTRANCE 1650            75 78  170/  6/  6 1022.6          3/11
4S FIRE IS       NOT AVBL
20S FIRE ISLAND  1550            73 76  250/  2/  4 1023.4          3/11
GREAT SOUTH BAY  1600            75 78  230/  8/ 10   N/A
23SW MTP         1650            73 73  240/  6/  8 1022.6          3/11
HUDSON CANYON    NOT AVBL
KINGS POINT      NOT AVBL
EXECUTION ROCKS  1600            78     160/  4/  6   N/A
CENTRAL LI SOUND NOT AVBL
EASTERN LI SOUND 1600            73 71  240/  8/ 12   N/A
ROBBINS REEF     NOT AVBL
$$


>>>>>>>>>>>>>>>>>>>>>>>>>>>> KEY <<<<<<<<<<<<<<<<<<<<<<<<<<<
>                                                          <
>     SKY/WX - SKY CONDITION/PRESENT WEATHER               <
>     TMP    - TEMPERATURE IN FAHRENHEIT                   <
>     DP     - DEWPOINT IN FAHRENHEIT                      <
>     RH     - RELATIVE HUMIDITY IN PERCENT                <
>     WIND   - DIRECTION AND SPEED IN MPH                  <
>     PRES   - MEAN SEA LEVEL PRESSURE IN INCHES OF HG     <
>     WCI    - WIND CHILL INDEX                            <
>     VSB    - VISIBILITY IN MILES                         <
>     HX     - HEAT INDEX                                  <
>     TC     - TEMPERATURE IN CELSIUS                      <
>     VRB    - VARIABLE WIND DIRECTION                     <
>                                                          <
>>>>>>>>>>>>>>>>>>>>>>>>>>>> KEY <<<<<<<<<<<<<<<<<<<<<<<<<<<





USA.gov is the U.S. government's official web portal to all federal, state and local government web resources and services.